Вернуться в каталог

VELA 7/8 INTERSTAGE

LostВоенныеHEO
NORAD 60000·PAYLOAD·🇺🇸 United States

Запущен Apr 28, 1967 с Cape Canaveral Space Force Station

Loading…

Ближайшие Пролёты (ближайшие 24 часа)

TLE

УстаревшееSource: Space-Track

Эпоха: Jun 15, 2025, 16:15 UTC

1 60000U 67040G   25166.67709270 -.00000123  00000-0  00000-0 0  9998
2 60000  18.6917 209.8579 7796801 338.8120   0.8002  0.51050668  5133

Отслеживайте VELA 7/8 INTERSTAGE в реальном времени с AllMySat

Download on the App Store